Armadillo
1 44352U 19036P 21308.38647127 .00179797 00000-0 19989-2 0 9997
2 44352 28.5263 245.9529 0266121 39.2396 322.7175 15.28780456130436
NO-104
1 44354U 19036R 21308.59662601 .00113543 00000-0 14134-2 0 9990
2 44354 28.5272 269.3199 0303275 0.9770 359.1373 15.19345837130258
NO-103
1 44355U 19036S 21308.03652777 .00153749 -66169-6 13519-2 0 9996
2 44355 28.5232 200.8198 0214124 112.3667 249.9771 15.43346369130897
Move-IIb
1 44398U 19038N 21308.62373935 .00006613 00000-0 36030-3 0 9992
2 44398 97.5970 272.1988 0023440 181.3873 178.7314 15.14512005128970
SONATE
1 44400U 19038Q 21308.88124571 .00003088 00000-0 17798-3 0 9997
2 44400 97.6061 272.1886 0024095 182.7745 177.3357 15.12919717128963
BeeSat 9
1 44412U 19038AC 21308.69547231 .00018089 00000-0 99516-3 0 9996
2 44412 97.6064 272.3984 0021502 186.0614 174.0361 15.13917763128668
JAISAT-1
1 44419U 19038F 21308.68642174 .00017145 00000-0 93131-3 0 9993
2 44419 97.6066 273.0481 0020493 183.6516 176.4569 15.14399962129011
LightSail-2
1 44420U 19036AC 21307.97372033 .00031338 00000-0 60919-2 0 9995
2 44420 24.0053 145.1785 0018880 289.1823 70.6627 14.61663979124039
Taurus 1
1 44530U 19059C 21308.83374767 .00001168 00000-0 33815-3 0 9998
2 44530 98.5511 40.3778 0014638 83.6063 276.6771 14.46275008113372
Duchifat 3
1 44854U 19089C 21308.48709530 .00002079 00000-0 17128-3 0 9992
2 44854 36.9669 352.3731 0007802 200.3558 159.6892 14.99759840104135
OPS-SAT
1 44878U 19092F 21308.44838156 .00009371 00000-0 47503-3 0 9997
2 44878 97.4756 129.9839 0014738 47.8245 312.4237 15.17081318104052
TO-108
1 44881U 19093C 21308.81837272 -.00000409 00000-0 -45309-4 0 9999
2 44881 97.9162 26.0502 0015020 190.4446 169.6440 14.81501475101516
FloripaSat 1
1 44885U 19093G 21308.82289424 .00000498 00000-0 68750-4 0 9995
2 44885 97.9190 26.8624 0014539 197.8576 162.2116 14.82446414101569
RS-44
1 44909U 19096E 21308.49579371 .00000029 00000-0 63546-4 0 9999
2 44909 82.5259 19.7566 0218375 125.5793 236.5876 12.79711288 86738
HO-107
1 45119U 19071J 21308.65613769 .00052511 00000-0 14126-2 0 9995
2 45119 51.6406 76.4761 0011086 77.2287 282.9935 15.37299470 98725
Phoenix
1 45258U 98067RB 21308.61441711 .00126513 00000-0 14591-2 0 9993
2 45258 51.6380 345.7665 0006572 51.6301 308.5282 15.60996922 97060
AztechSat-1
1 45261U 98067RE 21308.45457857 .00630148 00000-0 23104-2 0 9991
2 45261 51.6286 321.2663 0009270 60.7358 299.4571 15.86128575 97391
QARMAN
1 45263U 98067RG 21308.49418632 .00429658 00000-0 29539-2 0 9995
2 45263 51.6346 332.9215 0007697 58.5512 301.6238 15.72803021 97285
Quetzal 1
1 45598U 98067RL 21308.45124817 .00220242 00000-0 18339-2 0 9995
2 45598 51.6371 340.1962 0003108 52.8895 307.2386 15.68876380 86454
BY70-2
1 45857U 20042B 21308.85681699 .00003786 00000-0 53722-3 0 9999
2 45857 97.9765 23.1220 0012537 122.4142 237.8290 14.77509200 72272
UPMSat 2
1 46276U 20061E 21308.62390886 .00007781 00000-0 39940-3 0 9991
2 46276 97.4202 19.5072 0000975 148.9080 211.2211 15.16787368 64783
AmicalSat
1 46287U 20061R 21308.47137151 .00006100 00000-0 37028-3 0 9999
2 46287 97.4754 18.5995 0002390 10.8918 349.2363 15.10868163 64484
SALSAT
1 46495U 20068K 21308.55215686 .00001513 00000-0 11484-3 0 9997
2 46495 97.7025 245.2941 0015740 324.6601 35.3578 15.03647800 60388
BY70-3
1 46839U 20079N 21308.93754597 .00010741 00000-0 31755-3 0 9998
2 46839 97.2294 20.0150 0008451 67.7055 44.5477 15.35065399 55749
SPOC
1 46921U 98067RR 21308.40353225 .00076286 00000-0 97549-3 0 9996
2 46921 51.6412 356.4369 0000949 322.5678 37.5248 15.58539720 56650
Bobcat-1
1 46922U 98067RS 21308.69749241 .00270600 00000-0 28547-2 0 9992
2 46922 51.6417 350.9336 0002089 1.5530 358.5471 15.62799154 56701
Neutron-1
1 46923U 98067RT 21308.62308200 .00120745 00000-0 15363-2 0 9998
2 46923 51.6416 355.6508 0001380 331.6265 28.4652 15.58460085 56706
CAPE 3
1 47309U 21002A 21308.79085002 .00021013 00000-0 91406-3 0 9993
2 47309 60.6815 127.0544 0042124 122.9176 237.5973 15.21502300 44233
AO-109
1 47311U 21002C 21308.49051250 .00010888 00000-0 47011-3 0 9992
2 47311 60.6852 126.7588 0039322 118.2329 242.2737 15.22326477 44191
MiTEE 1
1 47314U 21002F 21308.47319780 .00021861 00000-0 87552-3 0 9995
2 47314 60.6829 124.3279 0040265 111.2841 249.2554 15.24332196 44246
ExoCube 2
1 47319U 21002L 21308.62694305 .00020299 00000-0 87336-3 0 9990
2 47319 60.6842 126.8225 0040148 120.2077 240.2995 15.21967917 44168
UVSQ-SAT
1 47438U 21006AB 21308.42755244 .00007521 00000-0 42187-3 0 9992
2 47438 97.4716 7.0526 0011893 342.0308 18.0501 15.13588881 43228
YUSAT 1
1 47439U 21006AC 21308.42789310 .00008774 00000-0 49064-3 0 9996
2 47439 97.4721 7.0618 0011750 342.2981 17.7840 15.13653236 43227
SOMP 2b
1 47445U 21006AJ 21308.58976390 .00014749 00000-0 82698-3 0 9995
2 47445 97.4686 7.0379 0011644 345.2661 14.8229 15.13423052 43240
IDEASSat
1 47458U 21006AX 21308.74760320 .00011472 00000-0 64702-3 0 9997
2 47458 97.4776 7.4759 0010678 343.6590 16.4295 15.13280615 43268
RSP-01
1 47925U 98067SB 21308.68615210 .00130306 00000-0 18105-2 0 9990
2 47925 51.6424 2.0571 0000250 78.7031 281.3989 15.56060568 36572
TAUSAT-1
1 47926U 98067SC 21308.76467619 .00204612 00000-0 26386-2 0 9990
2 47926 51.6409 0.3209 0000334 153.9568 206.1441 15.57775586 36593
Tsuru
1 47927U 98067SD 21308.65596470 .00120519 00000-0 17150-2 0 9999
2 47927 51.6424 2.6053 0000368 132.5794 227.5228 15.55454555 36569
STARS-EC
1 47928U 98067SE 21308.76620924 .00226648 00000-0 29294-2 0 9996
2 47928 51.6415 1.0823 0004475 305.8572 54.2005 15.57629799 36575
Maya-2
1 47929U 98067SF 21308.45904653 .00073652 00000-0 10585-2 0 9995
2 47929 51.6422 3.5390 0000488 132.2805 227.8228 15.55416179 36491
OPUSAT-II
1 47930U 98067SG 21308.64014588 .00268593 00000-0 33640-2 0 9994
2 47930 51.6415 1.0019 0001034 45.2786 314.8291 15.58323556 36581
GuaraniSat-1
1 47931U 98067SH 21308.71345423 .00146382 00000-0 20685-2 0 9994
2 47931 51.6424 2.2417 0000559 132.3109 227.7930 15.55536672 36578
CubeSX-Sirius-HSE
1 47951U 21022V 21308.80767038 .00002565 00000-0 17944-3 0 9992
2 47951 97.5464 208.0589 0021596 188.7826 259.4737 15.05977049 34177
CubeSX-HSE
1 47952U 21022W 21308.80140608 .00002240 00000-0 15711-3 0 9991
2 47952 97.5463 208.0603 0021579 187.7643 258.6190 15.06015335 34177
KSU-Cubesat
1 47954U 21022Y 21308.37420961 .00004725 00000-0 32575-3 0 9995
2 47954 97.5457 207.6811 0020956 189.0970 170.9880 15.06125743 33833
GRBAlpha
1 47959U 21022AD 21308.80208667 .00002479 00000-0 17345-3 0 9997
2 47959 97.5460 208.0792 0021245 188.3052 261.0426 15.06021107 32993
Orbicraft-Zorkiy
1 47960U 21022AE 21308.72444831 .00002346 00000-0 16403-3 0 9992
2 47960 97.5467 208.0608 0020838 187.8621 257.0336 15.06094082 33674
STECCO
1 47962U 21022AG 21308.82866609 .00004050 00000-0 27186-3 0 9990
2 47962 97.5425 208.4232 0016165 183.8339 248.6458 15.07272456 33010
DO-111
1 47963U 21022AH 21308.47049151 .00043043 00000-0 27552-2 0 9998
2 47963 97.5459 208.2925 0018646 181.3612 178.7569 15.08282346 32990
MO-110
1 47964U 21022AJ 21308.44317865 .00008073 00000-0 53249-3 0 9993
2 47964 97.5448 208.1595 0019301 181.4875 178.6298 15.07572394 32961
FEES
1 48082U 21022AL 21308.77301273 .00024648 00000-0 16286-2 0 9992
2 48082 97.5457 208.3679 0015683 176.1119 184.0234 15.07287308 32711
RamSat
1 48850U 98067SL 21308.69860505 .00091596 00000-0 14585-2 0 9993
2 48850 51.6428 5.8579 0004148 317.5629 42.5040 15.52492864 22271
MO-112
1 48868U 98067SP 21308.43124250 .00151045 00000-0 21499-2 0 9992
2 48868 51.6419 6.3241 0003771 339.5312 20.5528 15.55316961 21021
